User: anonymous
Location: Vancouver
(49.2500°N, 123.1330°W)
Time: 20:46:43
(UTC-07:00)
Language:

deb Explorer IX - Orbit

View from above orbital plane
View from above orbital plane
View from above satellite
View from above satellite

Ground track
Ground track

The orbit data is extracted from the following two-line orbital elements,

1 00085U 61004C   14260.99679095  .00009859  00000-0  25908-2 0   304
2 00085 038.7721 219.5284 0453400 284.1194 070.9576 14.01803671633309
Epoch (UTC): 17 September 2014 23:55:22
Eccentricity: 0.0453400
inclination: 38.7721°
perigee height: 558 km
apogee height: 1217 km
right ascension of ascending node: 219.5284°
argument of perigee: 284.1194°
revolutions per day: 14.01803671
mean anomaly at epoch: 70.9576°
orbit number at epoch: 63330

The dashed part of the orbit path shows where the satellite is in the earth's shadow,  

DLR